www.pogodaiklimat.ru

Погода и климат >> Архив погоды >> Россия >> Кировская область >> Киров


АРХИВ ПОГОДЫ в Кирове

Время (UTC), дата Ветер
(напр.,м/с)
 
Видим.   Явления Облачность Т
(С)
Тd
(С)
f
(%)
Тe
(С)
Тes
(С)
Комфортность P
(гПа)
Po
(гПа)
Тmin
(С)
Tmax
(С)
R
(мм)
R24
(мм)
S
(см)
12 18.05 ЮВ 2-4
{5}
20 км в посл. час ливневой дождь 9/8 600 м
[Cb calv Ac trans Ci sp]
+24.2 +13.0 50 +26 +28 жарко 1008.3 990.2
15 18.05 Ю 2-3
{6}
20 км 8/6 600 м
[Cb calv Ac As Ci sp]
+24.7 +12.2 46 +26 +27 жарко 1007.3 989.2 +26.1 2
18 18.05 ЮВ 2-3
{7}
20 км 9/6 600 м
[Cb calv Ac As Ci fib]
+19.7 +13.6 68 +22 +22 комфорт 1007.8 989.5
21 18.05 ЮВ 2-3
{4}
20 км 8/4 600 м
[Cb calv Ac As Ci fib]
+16.4 +12.2 76 +17 +17 тепло 1007.2 988.6
00 19.05 ЮВ 1-2
{3}
20 км 10/6 600 м
[Sc Ac und Cs]
+14.7 +11.8 83 +15 +15 тепло 1006.3 987.6
03 19.05 ЮЗ 1-2
{6}
20 км в посл. час ливневой дождь 9/8 600 м
[Cb calv Ac As Ci sp]
+15.4 +13.4 88 +16 +16 тепло 1005.4 986.8 +14.3 0.6
06 19.05 ЮВ 3-6
{6}
20 км {ливн. осадки} 9/8 600 м
[Cb calv Ac trans]
+19.4 +14.2 72 +21 +22 комфорт 1004.0 985.8
09 19.05 ЮЗ 3-6
{9}
20 км 10/8 600 м
[Cb calv Ci fib]
+24.6 +12.2 46 +26 +28 жарко 1002.8 984.8
12 19.05 Ю 3-6
{9}
20 км в посл. час гроза {ливн. осадки} 10/6 300 м
[Cb cap Ci fib]
+22.8 +13.7 56 +26 +28 жарко 1002.1 984.0
15 19.05 ЮЗ 4-9
{10}
20 км 6/3 600 м
[Cb calv Ci fib]
+24.4 +9.2 38 +25 +26 комфорт 1000.5 982.5 +25.6 0.0
18 19.05 ЮЗ 2-4
{10}
20 км 4/3 600 м
[Sc Ac trans Ci fib]
+19.2 +11.0 59 +21 +21 комфорт 1001.8 983.5
21 19.05 ЮЗ 1-3
{11}
20 км в посл. час ливневой дождь {гроза} 10/10 600 м
[Cb calv]
+14.6 +13.7 94 +15 +15 тепло 1003.0 984.4
00 20.05 ЮЗ 1-1
{4}
20 км {гроза, ливн. осадки} 10/10 600 м
[Cb calv]
+14.0 +13.1 94 +14 +14 тепло 1003.4 984.8
03 20.05 С 4-8
{8}
10 км слабый ливневой дождь 10/10 300 м
[Cb cap]
+11.1 +10.5 96 +9 +9 по сезону 1005.3 986.5 +11.0 3
06 20.05 С 4-8
{9}
4000 м дождь {ливн. осадки} 10/10 300 м
[St]
+9.2 +8.1 93 +6 +6 холодно 1008.9 989.8 +9.1
09 20.05 С 3-8
{8}
20 км {дождь, морось} 9/9 300 м
[Sc diur, vesp]
+8.3 +5.5 83 +6 +7 холодно 1012.6 993.4
12 20.05 С 3-7
{9}
20 км {дождь, морось} 10/10 300 м
[Sc diur, vesp]
+7.2 +3.8 79 +4 +4 очень
холодно
1015.8 996.5
15 20.05 С 3-7
{8}
20 км 10/10 300 м
[Sc diur, vesp]
+6.8 +3.0 77 +4 +4 очень
холодно
1018.3 998.9 +11.1 0.3
18 20.05 штиль 0-1
{7}
20 км 3/0
[Ci fib]
+5.9 +3.0 82 +5 +5 прохладно 1020.9 1001.4
21 20.05 З 1-1
{2}
20 км ясно +2.8 +2.5 98 +1 +1 холодно 1021.9 1002.2
00 21.05 З 1-1
{3}
20 км ясно +2.6 +2.6 100 +1 +1 холодно 1022.8 1003.0
03 21.05 В 1-3
{4}
20 км ясно +6.9 +2.3 72 +6 +9 прохладно 1025.1 1005.6 +1.9
06 21.05 СЗ 1-2
{3}
20 км ясно +11.0 -0.5 45 +11 +23 опасность
простуды
1026.6 1007.3
09 21.05 С 1-2
{4}
20 км 1/0
[Cc]
+14.6 +4.8 52 +15 +31 опасность
простуды
1026.4 1007.4
12 21.05 СЗ 2-5
{5}
20 км 6/3 600 м
[Cu Sc Ac As]
+18.1 +2.1 34 +19 +23 тепло 1026.2 1007.4
15 21.05 ЮЗ 2-4
{6}
20 км 3/3 600 м
[Cu Sc]
+19.1 +3.0 34 +20 +21 тепло 1025.0 1006.3 +19.1
18 21.05 ЮЗ 1-2
{5}
20 км 1/0
[Cs]
+13.2 +5.3 59 +14 +14 тепло 1026.1 1007.0
21 21.05 ЮЗ 2-3
{3}
20 км 4/0
[Cs]
+12.4 +4.3 58 +12 +12 тепло 1026.7 1007.5
00 22.05 штиль 0
{3}
20 км 10/0
[As op Cs]
+8.7 +5.1 78 +8 +8 по сезону 1027.5 1008.0
03 22.05 ЮЗ 1-3
{3}
20 км 6/0
[As op Cc]
+12.0 +6.8 70 +12 +14 тепло 1028.1 1008.9 +8.0
06 22.05 З 3-7
{7}
20 км 3/0
[Ac trans Ci sp]
+20.3 +9.7 51 +22 +30 комфорт 1027.5 1008.8
09 22.05 З 4-10
{11}
20 км ясно +24.1 +4.8 29 +24 +33 комфорт 1026.4 1008.0
12 22.05 СЗ 3-10
{10}
20 км ясно +25.7 +5.5 27 +25 +32 комфорт 1025.6 1007.3
15 22.05 З 3-7
{10}
20 км ясно +25.9 +7.0 30 +26 +27 жарко 1024.6 1006.3 +26.0
18 22.05 З 1-2
{6}
20 км 4/0
[Ci fib]
+19.7 +7.8 46 +22 +22 комфорт 1024.8 1006.1
21 22.05 З 1-3
{3}
20 км ясно +16.6 +8.4 58 +18 +18 тепло 1025.1 1006.3
00 23.05 З 1-2
{3}
20 км 1/0
[Ci fib]
+12.7 +7.8 72 +13 +13 тепло 1025.2 1006.1
03 23.05 З 2-4
{4}
20 км 4/0
[Ci]
+16.1 +7.0 55 +16 +19 тепло 1024.7 1005.8 +12.6
06 23.05 ЮЗ 2-5
{6}
10 км слабый ливневой дождь 10/8 600 м
[Cb cap As op]
+17.8 +7.8 52 +18 +19 тепло 1024.7 1005.9
09 23.05 ЮЗ 3-6
{8}
20 км {ливн. осадки} 8/3 600 м
[Sc Ac trans Cc]
+21.3 +9.5 47 +23 +28 комфорт 1022.4 1003.8
12 23.05 ЮЗ 4-11
{11}
20 км {ливн. осадки} 10/5 600 м
[Sc Ac lent Ci fib]
+24.6 +11.5 44 +26 +28 жарко 1018.9 1000.7
15 23.05 ЮЗ 4-9
{11}
20 км 10/6 600 м
[Cb calv Ac lent Ci fib]
+23.2 +11.7 48 +26 +26 жарко 1016.6 998.3 +24.7 0.0
18 23.05 ЮЗ 1-3
{9}
20 км {гроза} 10/4 600 м
[Cb calv Ac lent Ci fib]
+19.7 +11.8 60 +22 +22 комфорт 1016.1 997.6
21 23.05 ЮЗ 2-5
{9}
20 км 10/10 600 м
[Sc]
+17.6 +12.4 72 +18 +18 тепло 1015.9 997.3
00 24.05 З 2-4
{5}
20 км 6/0
[Ac lent Ci fib]
+14.6 +10.9 78 +14 +14 тепло 1016.0 997.2
03 24.05 СЗ 2-6
{6}
20 км 1/0
[Ac trans]
+15.0 +9.8 71 +15 +17 тепло 1016.6 997.7 +13.9
06 24.05 СЗ 2-5
{7}
20 км 9/9 600 м
[Cb calv]
+17.0 +10.0 63 +17 +18 тепло 1017.8 999.1
09 24.05 СЗ 2-5
{7}
20 км 8/8 600 м
[Cb calv]
+18.6 +9.8 57 +20 +22 тепло 1018.1 999.5
12 24.05 СЗ 3-8
{9}
20 км 5/4 600 м
[Cu med, cong Ci ing]
+17.5 +8.6 56 +18 +22 тепло 1018.7 1000.0
15 24.05 С 4-7
{9}
20 км 8/3 600 м
[Sc diur, vesp Ac lent Ci fib]
+14.3 +3.2 47 +13 +14 по сезону 1019.1 1000.2 +19.0
18 24.05 С 2-4
{7}
20 км 1/0
[Ac lent]
+11.7 +1.3 49 +11 +11 по сезону 1020.1 1001.0
21 24.05 С 3-5
{7}
20 км 8/0
[Ac trans]
+9.0 0.0 53 +7 +7 по сезону 1021.0 1001.7
00 25.05 С 1-3
{5}
20 км 10/4 600 м
[Sc Ac As]
+6.8 +0.4 64 +6 +6 по сезону 1021.6 1002.1
03 25.05 С 3-8
{8}
20 км 5/1 600 м
[Cu med, cong Ac trans Cc]
+6.8 -0.5 60 +4 +6 холодно 1022.3 1002.7 +6.0
06 25.05 С 2-6
{9}
20 км 8/6 300 м
[Cb calv Ac trans]
+9.4 -1.9 45 +8 +11 прохладно 1022.3 1002.9
09 25.05 СЗ 3-8
{9}
20 км 9/9 300 м
[Cb calv]
+10.2 -1.7 43 +9 +10 холодно 1022.7 1003.4

 

Местоположение метеостанции Киров (Кировская область, Россия): широта 58.60 долгота 49.63 высота над уровнем моря 158 м.

В архиве по умолчанию представлена погода в Кирове за последнюю неделю. Архивные данные за месяц целиком и за предыдущие месяцы, начиная с января 2011 года, Вы можете получить, выбрав интересующий диапазон дат из раскрывающегося списка и нажав кнопку "Ввод!".


*Определитесь, кто Вы:
робот инопланетянин человек

Внимание! Время в таблицах - всемирное. Для получения местного времени необходимо прибавить поправку, которая в Кирове равна 3 ч.

Смотрите также архив погоды в соседних городах и на ближайших метеорологических станциях:

Погода в Кумене (Кировская область, Россия) (58 км)
Погода в Белой Холунице (Кировская область, Россия) (75 км)
Погода в Котельниче (Кировская область, Россия) (82 км)
Погода в Даровском (Кировская область, Россия) (98 км)
Погода в Нагорске (Кировская область, Россия) (106 км)
Погода в Фаленках (Кировская область, Россия) (116 км)
Погода в Нолинске (Кировская область, Россия) (118 км)
Погода в Унях (Кировская область, Россия) (145 км)
Погода в Шабалино (Кировская область, Россия) (150 км)
Погода в Опарино (Кировская область, Россия) (159 км)

Пояснения к столбцам:

Ветер - указаны скорость ветра в м/с - средняя за 10 мин, порывы в срок и между сроками (в фигурных скобках) и направление, откуда дует ветер: С - северный, СВ - северо-восточный, В - восточный, ЮВ - юго-восточный, Ю - южный, ЮЗ - юго-западный, З - западный, СЗ - северо-западный.
Видимость - горизонтальная дальность видимости в метрах или километрах. При видимости от 1 до 10 км при отсутствии осадков обычно наблюдается дымка, при ухудшении видимости до 1 км и менее - туман. В сухую погоду видимость может ухудшаться дымом, пылью или мглою.
Явления - указаны атмосферные явления, наблюдавшиеся в срок или в последний час перед сроком; фигурными скобками обозначены явления, наблюдавшиеся между сроками (за 1-3 часа до срока); квадратными скобками обозначены град или гололедные отложения с указанием их диаметра в мм.
Облачность - указаны через наклонную черту общая и нижняя облачность в баллах и высота нижней границы облаков в метрах; квадратными скобками обозначены формы облаков: Ci - перистые, Cs - перисто-слоистые, Cc - перисто-кучевые, Ac - высококучевые, As - высокослоистые, Sc - слоисто-кучевые, Ns - слоисто-дождевые, Cu - кучевые, Cb - кучево-дождевые. Подробнее классификацию облаков см. в Атласе облаков (PDF).
T - Температура воздуха - температура, измеренная на высоте 2 м над землей.
Td - Температура точки росы - температура, при понижении до которой содержащийся в воздухе водяной пар достигнет насыщения.
f - Относительная влажность воздуха - влажноcть воздуха, измеренная на высоте 2 м над землей.
Te - Эффективная температура - температура, которую ощущает одетый по сезону человек в тени. Характеристика душности погоды. При расчете учитывается влияние влажности воздуха и скорости ветра на теплоощущения человека.
Tes - Эффективная температура на солнце - температура, которую ощущает человек, с поправкой на солнечный нагрев. Характеристика знойности погоды. Зависит от высоты солнца над горизонтом, облачности и скорости ветра. Ночью, в пасмурную погоду, а также при ветре 12 м/с и более поправка равна нулю.
P - Атмосферное давление - приведенное к уровню моря атмосферное давление.
Po - Атмосферное давление - измеренное на уровне метеостанции атмосферное давление.
Tmin - Минимальная температура - минимум температуры воздуха на высоте 2 м над землей.
Tmax - Максимальная температура - максимум температуры воздуха на высоте 2 м над землей.
R - Количество осадков - Количество выпавших осадков за период времени, мм. При наведении курсора мыши на число - период времени, за который выпало указанное количество осадков.
R24 - Количество осадков - Количество выпавших осадков за 24 часа, мм.
S - Снежный покров - Высота снежного покрова, см. При наведении курсора мыши на число - состояние снежного покрова и степень покрытия местности в баллах.